Tracking 31027 objects as of 19-Jul-2025
HD Live streaming from Space Station
objects crossing your sky now

COSMOS 2251 DEB

Track COSMOS 2251 DEB now!
10-day predictions


NORAD ID: 33762
Int'l Code: 1993-036K
Perigee: 775.3 km
Apogee: 798.4 km
Inclination: 74.0 °
Period: 100.4 minutes
Semi major axis: 7157 km
RCS: 0.07 m2 (small)
Launch date: June 16, 1993
Source: Commonwealth of Independent States (former USSR) (CIS)
Launch site: PLESETSK MISSILE AND SPACE COMPLEX (PKMTR)

Note: This is SATELLITE DEBRIS
Your satellite tracking list
Your tracking list is empty




NASA's NSSDC Master Catalog

Two Line Element Set (TLE):
1 33762U 93036K   25199.48608964  .00000061  00000-0  31480-4 0  9990
2 33762  74.0392 219.2243 0016113 317.9650 156.1213 14.33607797859372
Source of the keplerian elements: AFSPC